Location: Luna
(33.8188°N, 108.9564°W)
Time: 13:05:48
(UTC+00:00)

PRISM - Visible Passes

Search period start: 27 March 2023 00:00
Search period end: 06 April 2023 00:00
Orbit: 542 x 564 km, 98.3° (Epoch: 26 March)

Date Brightness Start Highest point End Pass type
(mag) Time Alt. Az. Time Alt. Az. Time Alt. Az.
29 Mar ? 12:41:23 10° NE 12:43:56 16° E 12:46:28 10° SE visible
30 Mar ? 12:38:12 10° ENE 12:40:28 15° E 12:42:44 10° SE visible
31 Mar ? 12:35:03 10° ENE 12:36:58 13° E 12:38:51 10° ESE visible
01 Apr ? 12:32:01 10° ENE 12:33:26 12° E 12:34:50 10° ESE visible
02 Apr ? 12:29:21 10° E 12:29:52 10° E 12:30:22 10° E visible
